Location: Newark
(39.6867°N, 100.6772°W)
Time: 09:21:15
(UTC+00:00)

Explorer 11/Cluster Stage 4 - Pass Details

Date: 21 October 2019
Orbit: 467 x 1259 km, 28.8° (Epoch: 19 November)

Event Time Altitude Azimuth Distance (km) Brightness Sun altitude
Rises 15:16:51 0° 220° (SW) 2,506 9.2 23.0°
Reaches altitude 10° 15:20:35 10° 181° (S) 1,605 8.8 23.5°
Maximum altitude 15:21:29 11° 166° (SSE) 1,563 9.1 23.7°
Drops below altitude 10° 15:22:23 10° 152° (SSE) 1,614 9.6 23.8°
Sets 15:26:12 0° 112° (ESE) 2,559 10.4 24.4°
